Regional Weather Roundup
Issued by NWS Austin/San Antonio, TX

Home | Current Version | Previous Version | Text Only | Print | Product List | Glossary Off
Versions: 1 2 3 4 5 6 7 8 9 10 11 12 13 14 15 16 17 18 19 20 21 22 23 24 25 26 27 28 29 30 31 32 33 34 35 36 37 38 39 40 41 42 43 44 45 46 47 48 49 50

000
ASUS44 KEWX 170710
RWREWX
SOUTH TEXAS REGIONAL WEATHER ROUNDUP
NATIONAL WEATHER SERVICE AUSTIN/SAN ANTONIO TX
100 AM CST WED JAN 17 2018

NOTE: "FAIR" INDICATED FEW OR NO CLOUDS BELOW 12,000 FEET WITH NO
SIGNIFICANT WEATHER AND/OR OBSTRUCTIONS TO VISIBILITY.

* - THESE STATIONS ARE NOT NWS OR FAA STATIONS...AND ARE NOT SUBJECT
    TO NWS AND FAA QUALITY CONTROL.

TXZ171-172-183>190-170800-
TEXAS HILL COUNTRY AND EDWARDS PLATEAU

CITY           SKY/WX    TMP DP  RH WIND       PRES   REMARKS
JUNCTION       CLOUDY    26  -2  29 N9        30.66S WCI  17
*LLANO         CLOUDY    19   3  49 NW3       30.75F
BURNET         CLOUDY    20   2  45 N5        30.70F WCI  13
*HORSESHOE BAY CLOUDY    25   4  40 N7        30.70F WCI  17
*KERRVILLE     CLOUDY    26   2  35 N9        30.65F WCI  17
*FREDERICKSBRG CLOUDY    24  -4  29 N9        30.66S WCI  14
*ROCKSPRINGS     N/A     25  -2  30 CALM      30.67F
*BOERNE STAGE  CLOUDY    27   3  36 N8        30.67S WCI  18
*CASTROVILLE   CLOUDY    30   8  39 CALM      30.74S
HONDO          CLOUDY    31  17  56 CALM      30.71F
*UVALDE        CLOUDY    31   8  37 CALM      30.72F
DEL RIO        CLOUDY    33  -1  23 N6        30.70F WCI  28
LAUGHLIN AFB   CLOUDY    32   1  25 N7        30.70F WCI  26
CARRIZO SPRGS  CLOUDY    34  14  44 NE3       30.73S
*EAGLE PASS      N/A     34   3  27 N5        30.71F WCI  30
*FAITH RANCH   CLOUDY    34  16  47 CALM      30.72S
$$

TXZ173-191>194-202-209-217>225-228-170800-
CENTRAL AND SOUTH CENTRAL TEXAS

CITY           SKY/WX    TMP DP  RH WIND       PRES   REMARKS
GEORGETOWN     CLOUDY    20   7  57 N8        30.73F WCI  10
AUSTIN/BERGSTM CLOUDY    23  12  62 N9        30.72S WCI  13
AUSTIN/MABRY   CLOUDY    26   5  40 N5        30.73S WCI  20
*AUSTIN/EXEC   CLOUDY    21  10  63 MISG      30.73S
*LAGO VISTA    CLOUDY    22   4  45 N6        30.68F WCI  15
SAN MARCOS     CLOUDY    27  10  49 N13       30.73S WCI  16
NEW BRAUNFELS  CLOUDY    28  10  46 N10       30.70S WCI  19
RANDOLPH AFB   CLOUDY    29   6  38 N5        30.70S WCI  23
PT SAN ANTONIO CLOUDY    30   7  37 N6        30.71S WCI  24
SAN ANTONIO    CLOUDY    29   7  39 N8        30.71S WCI  21
STINSON FIELD  CLOUDY    31   7  36 N6        30.71S WCI  25
*LA GRANGE     CLOUDY    26  11  55 N7        30.71S WCI  18
*GIDDINGS      CLOUDY    23  11  61 N5        30.72F WCI  17
*GONZALES      CLOUDY    26  16  65 N5        30.72S WCI  21
$$

TXZ163>164-176>182-195>201-210>213-226-227-235-170800-
SOUTHEAST TEXAS

CITY           SKY/WX    TMP DP  RH WIND       PRES   REMARKS
COLLEGE STN    CLOUDY    21   9  59 N10       30.73F WCI  10
*BRYAN         CLOUDY    18   9  67 N6        30.74F WCI  10
*CALDWELL      CLOUDY    20  10  65 N6        30.73F WCI  12
*CROCKETT        N/A     16   7  67 CALM      30.75F
*BRENHAM       CLOUDY    22  15  74 N5        30.73S WCI  16
HUNTSVILLE     FAIR      18  10  71 N6        30.71S WCI  10
CONROE         FAIR      21  10  62 VRB5      30.71S WCI  15
HOUSTON BUSH   FAIR      24  12  60 N14       30.71F WCI  12
HOUSTON HOBBY  FAIR      24  15  68 N20       30.69F WCI  10
*HOUSTON SW AP CLOUDY    24  15  67 MISG      30.71S
PEARLAND       CLOUDY    26  18  71 N12       30.71F WCI  16
HOUSTON HOOKS  FAIR      23  11  60 N10       30.71F WCI  12
ELLINGTON FLD  PTCLDY    25  16  68 N10       30.70F WCI  15
SUGAR LAND     FAIR      25  13  60 N16       30.70S WCI  12
*HOUSTON EXEC  FAIR      21  14  73 CALM      30.73S
*CLEVELAND MUN FAIR      22   8  54 N6        30.72F WCI  15
*WHARTON       CLOUDY    25  17  73 CALM      30.72F
*COLUMBUS      MOCLDY    24  10  54 N9G16     30.73S WCI  15
*EAGLE LAKE    CLOUDY    25  17  72 MISG      30.71S
$$

TXZ214>216-236>238-170800-
THE UPPER TEXAS COAST

CITY           SKY/WX    TMP DP  RH WIND       PRES   REMARKS
*ORANGE        FAIR      25  20  82 N8        30.69F WCI  16
PORT ARTHUR    FAIR      25  16  68 N18       30.68S WCI  11
GALVESTON      CLOUDY    29  20  69 N23G35    30.67F WCI  15
ANGLETON       CLOUDY    27  19  72 N13       30.68F WCI  16
*BAY CITY      CLOUDY    27  22  81 N6        30.69F WCI  20
PALACIOS       CLOUDY    27  21  78 N14       30.71S WCI  16
$$

TXZ229>234-239>247-170800-
TEXAS COASTAL BEND AND RIO GRANDE PLAINS

CITY           SKY/WX    TMP DP  RH WIND       PRES   REMARKS
VICTORIA       CLOUDY    27  15  61 N14       30.72F WCI  16
*BEEVILLE      CLOUDY    29   9  43 N9        30.72F WCI  20
ROCKPORT       CLOUDY    29  14  53 N15       30.72R WCI  18
*PORT ARANSAS  NOT AVBL
*PORT LAVACA   CLOUDY    27  19  72 N15G21    30.71F WCI  15
*INGLESIDE     CLOUDY    31  15  52 N14G20    30.72S WCI  20
CORPUS CHRISTI CLOUDY    30  13  49 N23G29    30.72S WCI  17
CORPUS NAS     CLOUDY    32  15  49 N25       30.71F WCI  19
*ROBSTOWN      NOT AVBL
ALICE          CLOUDY    31   9  39 N15       30.72F WCI  20
KINGSVILLE NAS CLOUDY    31  11  43 N17G24    30.73S WCI  19
COTULLA        CLOUDY    33   8  35 NE6       30.74S WCI  28
LAREDO         CLOUDY    34  20  56 N5        30.73F WCI  30
$$

TXZ248>255-170800-
DEEP SOUTH TEXAS

CITY           SKY/WX    TMP DP  RH WIND       PRES   REMARKS
BROWNSVILLE    NOT AVBL
PORT ISABEL    NOT AVBL
*SOUTH PADRE   NOT AVBL
HARLINGEN      NOT AVBL
*HEBBRONVILLE  CLOUDY    30  25  81 N5        30.70F WCI  25
MCALLEN        NOT AVBL
*WESLACO       CLOUDY    31  24  77 N10G16    30.70F WCI  22
FALFURRIAS     CLOUDY    33  13  43 N10G16    30.72F WCI  25
EDINBURG       CLOUDY    33  26  77 N6        30.71F WCI  27
*ZAPATA        CLOUDY    34  19  53 N7        30.72F WCI  28
$$

TXZ213>215-236>238-242>244-246-247-251-254-255-170800-
CMAN STATIONS

STATION/POSITION TIME  TEMP    WIND        PRES    WAVE
                       AIR SEA DIR/SP/G            HT/PER
                 (UTC) (F)     (DEG/KT/KT) (MB)    (FT/S)
SABINE PASS      0642      49  350/ 13/ 19   N/A
SEA RIM ST PARK  0700   25     360/ 14/ 18 1038.7
NORTH JETTY/GLS  0642      47   10/ 22/ 26   N/A
EAGLE POINT      0642      43   20/ 14/ 21   N/A
MORGANS POINT    0648      46   10/ 11/ 17   N/A
PORT O`CONNOR    0636          360/ 23/ 29   N/A
MALAQUITE BEACH  0642      51  340/ 14/ 18   N/A
BAFFIN BAY       0642      46  340/ 14/ 18   N/A
PORT ISABEL      0642      56  330/  5/  9   N/A
$$



USA.gov is the U.S. government's official web portal to all federal, state and local government web resources and services.